Time,TemperatureF,DewpointF,PressureIn,WindDirection,WindDirectionDegrees,WindSpeedMPH,WindSpeedGustMPH,Humidity,HourlyPrecipIn,Conditions,Clouds,dailyrainin,SoftwareType,DateUTC
2013-10-06 00:01:00,66.4,63.6,29.91,West,270,0.0,0.0,91,0.00,,,0.00,WUHU21623XXSP,2013-10-06 04:01:00,
2013-10-06 00:06:00,66.4,63.6,29.91,West,270,0.0,0.0,91,0.00,,,0.00,WUHU21623XXSP,2013-10-06 04:06:00,
2013-10-06 00:11:00,66.0,63.3,29.90,West,270,0.0,0.0,91,0.00,,,0.00,WUHU21623XXSP,2013-10-06 04:11:00,
2013-10-06 00:16:00,66.0,63.3,29.90,ESE,112,0.0,0.0,91,0.00,,,0.00,WUHU21623XXSP,2013-10-06 04:16:00,
2013-10-06 00:21:00,66.0,63.3,29.90,South,180,0.0,0.0,91,0.00,,,0.00,WUHU21623XXSP,2013-10-06 04:21:00,
2013-10-06 00:26:00,66.0,63.3,29.90,WSW,247,0.0,0.0,91,0.00,,,0.00,WUHU21623XXSP,2013-10-06 04:26:00,
2013-10-06 00:31:00,66.0,63.3,29.90,WSW,247,0.0,0.0,91,0.00,,,0.00,WUHU21623XXSP,2013-10-06 04:31:00,
2013-10-06 00:37:00,65.8,63.1,29.89,WNW,292,0.0,0.0,91,0.00,,,0.00,WUHU21623XXSP,2013-10-06 04:37:00,
2013-10-06 00:42:00,65.7,62.9,29.90,SSW,202,0.0,0.0,91,0.00,,,0.00,WUHU21623XXSP,2013-10-06 04:42:00,
2013-10-06 00:47:00,65.5,62.8,29.89,West,270,0.0,0.0,91,0.00,,,0.00,WUHU21623XXSP,2013-10-06 04:47:00,
2013-10-06 00:52:00,65.5,62.8,29.90,WSW,247,0.0,0.0,91,0.00,,,0.00,WUHU21623XXSP,2013-10-06 04:52:00,
2013-10-06 00:57:00,65.3,62.6,29.89,SSE,157,0.0,0.0,91,0.00,,,0.00,WUHU21623XXSP,2013-10-06 04:57:00,
2013-10-06 01:01:00,65.3,62.6,29.89,SSE,157,0.0,0.0,91,0.00,,,0.00,WUHU21623XXSP,2013-10-06 05:01:00,
2013-10-06 01:08:00,65.3,62.6,29.88,SSE,157,0.0,0.0,91,0.00,,,0.00,WUHU21623XXSP,2013-10-06 05:08:00,
2013-10-06 01:13:00,65.1,62.5,29.88,SSW,202,0.0,0.0,91,0.00,,,0.00,WUHU21623XXSP,2013-10-06 05:13:00,
2013-10-06 01:18:00,65.1,62.5,29.88,South,180,0.0,0.0,91,0.00,,,0.00,WUHU21623XXSP,2013-10-06 05:18:00,
2013-10-06 01:23:00,65.1,62.5,29.88,SSE,157,0.0,0.0,91,0.00,,,0.00,WUHU21623XXSP,2013-10-06 05:23:00,
2013-10-06 01:28:00,65.1,62.5,29.87,WSW,247,0.0,0.0,91,0.00,,,0.00,WUHU21623XXSP,2013-10-06 05:28:00,
2013-10-06 01:33:00,65.1,62.5,29.87,ENE,67,0.0,0.0,91,0.00,,,0.00,WUHU21623XXSP,2013-10-06 05:33:00,
2013-10-06 01:38:00,65.1,62.5,29.87,ENE,67,0.0,0.0,91,0.00,,,0.00,WUHU21623XXSP,2013-10-06 05:38:00,
2013-10-06 01:43:00,65.1,62.5,29.87,ENE,67,0.0,0.0,91,0.00,,,0.00,WUHU21623XXSP,2013-10-06 05:43:00,
2013-10-06 01:48:00,65.1,62.5,29.87,South,180,0.0,0.0,91,0.00,,,0.00,WUHU21623XXSP,2013-10-06 05:48:00,
2013-10-06 01:53:00,65.1,62.5,29.87,SE,135,0.0,0.0,91,0.00,,,0.00,WUHU21623XXSP,2013-10-06 05:53:00,
2013-10-06 01:58:00,64.9,62.3,29.87,SSE,157,0.0,0.0,91,0.00,,,0.00,WUHU21623XXSP,2013-10-06 05:58:00,
2013-10-06 02:03:00,64.9,62.3,29.86,ENE,67,0.0,0.0,91,0.00,,,0.00,WUHU21623XXSP,2013-10-06 06:03:00,
2013-10-06 02:10:00,64.9,62.3,29.86,ENE,67,0.0,0.0,91,0.00,,,0.00,WUHU21623XXSP,2013-10-06 06:10:00,
2013-10-06 02:15:00,64.9,62.3,29.86,ENE,67,0.0,0.0,91,0.00,,,0.00,WUHU21623XXSP,2013-10-06 06:15:00,
2013-10-06 02:20:00,64.9,62.3,29.87,South,180,0.0,0.0,91,0.00,,,0.00,WUHU21623XXSP,2013-10-06 06:20:00,
2013-10-06 02:25:00,64.9,62.3,29.87,ESE,112,0.0,0.0,91,0.00,,,0.00,WUHU21623XXSP,2013-10-06 06:25:00,
2013-10-06 02:30:00,64.9,62.3,29.87,SE,135,0.0,0.0,91,0.00,,,0.00,WUHU21623XXSP,2013-10-06 06:30:00,
2013-10-06 02:35:00,64.9,62.3,29.87,SSE,157,0.0,0.0,91,0.00,,,0.00,WUHU21623XXSP,2013-10-06 06:35:00,
2013-10-06 02:40:00,64.9,62.3,29.87,SSE,157,0.0,0.0,91,0.00,,,0.00,WUHU21623XXSP,2013-10-06 06:40:00,
2013-10-06 02:45:00,64.9,62.3,29.87,SE,135,0.0,0.0,91,0.00,,,0.00,WUHU21623XXSP,2013-10-06 06:45:00,
2013-10-06 02:50:00,64.9,62.3,29.87,SE,135,0.0,0.0,91,0.00,,,0.00,WUHU21623XXSP,2013-10-06 06:50:00,
2013-10-06 02:55:00,64.9,62.3,29.87,WSW,247,0.0,0.0,91,0.00,,,0.00,WUHU21623XXSP,2013-10-06 06:55:00,
2013-10-06 03:00:00,64.9,62.3,29.87,South,180,0.0,0.0,91,0.00,,,0.00,WUHU21623XXSP,2013-10-06 07:00:00,
2013-10-06 03:05:00,64.9,62.3,29.87,South,180,0.0,0.0,91,0.00,,,0.00,WUHU21623XXSP,2013-10-06 07:05:00,
2013-10-06 03:10:00,64.9,62.3,29.87,South,180,0.0,0.0,91,0.00,,,0.00,WUHU21623XXSP,2013-10-06 07:10:00,
2013-10-06 03:15:00,64.9,62.3,29.86,South,180,0.0,0.0,91,0.00,,,0.00,WUHU21623XXSP,2013-10-06 07:15:00,
2013-10-06 03:20:00,64.9,62.6,29.85,SSE,157,0.0,0.0,92,0.00,,,0.00,WUHU21623XXSP,2013-10-06 07:20:00,
2013-10-06 03:25:00,64.8,62.4,29.84,South,180,0.0,0.0,92,0.02,,,0.02,WUHU21623XXSP,2013-10-06 07:25:00,
2013-10-06 03:30:00,64.8,62.4,29.84,South,180,0.0,0.0,92,0.02,,,0.02,WUHU21623XXSP,2013-10-06 07:30:00,
2013-10-06 03:35:00,64.8,62.4,29.85,East,90,0.0,0.0,92,0.02,,,0.02,WUHU21623XXSP,2013-10-06 07:35:00,
2013-10-06 03:40:00,64.8,62.4,29.85,SSE,157,0.0,0.0,92,0.02,,,0.02,WUHU21623XXSP,2013-10-06 07:40:00,
2013-10-06 03:45:00,64.8,62.4,29.84,SSE,157,0.0,0.0,92,0.02,,,0.02,WUHU21623XXSP,2013-10-06 07:45:00,
2013-10-06 03:50:00,64.8,62.4,29.84,ENE,67,0.0,0.0,92,0.02,,,0.02,WUHU21623XXSP,2013-10-06 07:50:00,
2013-10-06 03:55:00,64.8,62.4,29.83,WSW,247,0.0,0.0,92,0.04,,,0.04,WUHU21623XXSP,2013-10-06 07:55:00,
2013-10-06 04:00:00,64.9,62.6,29.83,SSE,157,0.0,0.0,92,0.04,,,0.04,WUHU21623XXSP,2013-10-06 08:00:00,
2013-10-06 04:05:00,64.9,62.6,29.83,SSE,157,0.0,0.0,92,0.04,,,0.04,WUHU21623XXSP,2013-10-06 08:05:00,
2013-10-06 04:10:00,64.9,62.6,29.83,SSE,157,0.0,0.0,92,0.04,,,0.04,WUHU21623XXSP,2013-10-06 08:10:00,
2013-10-06 04:15:00,64.9,62.6,29.83,ENE,67,0.0,0.0,92,0.04,,,0.04,WUHU21623XXSP,2013-10-06 08:15:00,
2013-10-06 04:20:00,64.9,62.6,29.82,SSE,157,0.0,0.0,92,0.04,,,0.04,WUHU21623XXSP,2013-10-06 08:20:00,
2013-10-06 04:25:00,64.9,62.6,29.82,SSE,157,0.0,0.0,92,0.02,,,0.04,WUHU21623XXSP,2013-10-06 08:25:00,
2013-10-06 04:30:00,64.9,62.6,29.81,ESE,112,0.0,0.0,92,0.02,,,0.04,WUHU21623XXSP,2013-10-06 08:30:00,
2013-10-06 04:35:00,64.9,62.9,29.82,SSE,157,0.0,0.0,93,0.02,,,0.04,WUHU21623XXSP,2013-10-06 08:35:00,
2013-10-06 04:40:00,64.9,62.9,29.83,ESE,112,0.0,0.0,93,0.02,,,0.04,WUHU21623XXSP,2013-10-06 08:40:00,
2013-10-06 04:45:00,64.9,62.9,29.83,ESE,112,0.0,0.0,93,0.02,,,0.04,WUHU21623XXSP,2013-10-06 08:45:00,
2013-10-06 04:50:00,64.9,62.9,29.81,SSW,202,0.0,0.0,93,0.02,,,0.04,WUHU21623XXSP,2013-10-06 08:50:00,
2013-10-06 04:55:00,64.9,62.9,29.83,North,0,0.0,0.0,93,0.00,,,0.04,WUHU21623XXSP,2013-10-06 08:55:00,
2013-10-06 05:00:00,64.9,62.9,29.83,SSE,157,0.0,0.0,93,0.00,,,0.04,WUHU21623XXSP,2013-10-06 09:00:00,
2013-10-06 05:05:00,64.9,62.9,29.83,SSE,157,0.0,0.0,93,0.00,,,0.04,WUHU21623XXSP,2013-10-06 09:05:00,
2013-10-06 05:10:00,64.9,62.9,29.83,SSE,157,0.0,0.0,93,0.00,,,0.04,WUHU21623XXSP,2013-10-06 09:10:00,
2013-10-06 05:15:00,64.9,62.9,29.83,SSE,157,0.0,0.0,93,0.00,,,0.04,WUHU21623XXSP,2013-10-06 09:15:00,
2013-10-06 05:20:00,64.8,62.7,29.83,SE,135,0.0,0.0,93,0.00,,,0.04,WUHU21623XXSP,2013-10-06 09:20:00,
2013-10-06 05:25:00,64.8,62.7,29.83,East,90,0.0,0.0,93,0.00,,,0.04,WUHU21623XXSP,2013-10-06 09:25:00,
2013-10-06 05:30:00,64.8,62.7,29.82,East,90,0.0,0.0,93,0.00,,,0.04,WUHU21623XXSP,2013-10-06 09:30:00,
2013-10-06 05:35:00,64.8,62.7,29.82,South,180,0.0,0.0,93,0.00,,,0.04,WUHU21623XXSP,2013-10-06 09:35:00,
2013-10-06 05:40:00,64.8,62.4,29.83,South,180,0.0,0.0,92,0.00,,,0.04,WUHU21623XXSP,2013-10-06 09:40:00,
2013-10-06 05:45:00,64.8,62.4,29.82,South,180,0.0,0.0,92,0.00,,,0.04,WUHU21623XXSP,2013-10-06 09:45:00,
2013-10-06 05:50:00,64.6,62.3,29.82,SE,135,0.0,0.0,92,0.00,,,0.04,WUHU21623XXSP,2013-10-06 09:50:00,
2013-10-06 05:55:00,64.8,62.4,29.82,SSE,157,0.0,0.0,92,0.00,,,0.04,WUHU21623XXSP,2013-10-06 09:55:00,
2013-10-06 06:00:00,64.6,62.3,29.82,SE,135,0.0,0.0,92,0.00,,,0.04,WUHU21623XXSP,2013-10-06 10:00:00,
2013-10-06 06:05:00,64.6,62.3,29.82,SE,135,0.0,0.0,92,0.00,,,0.04,WUHU21623XXSP,2013-10-06 10:05:00,
2013-10-06 06:10:00,64.6,62.3,29.82,SE,135,0.0,0.0,92,0.00,,,0.04,WUHU21623XXSP,2013-10-06 10:10:00,
2013-10-06 06:15:00,64.6,62.3,29.83,ESE,112,0.0,0.0,92,0.00,,,0.04,WUHU21623XXSP,2013-10-06 10:15:00,
2013-10-06 06:20:00,64.6,62.3,29.83,ESE,112,0.0,0.0,92,0.00,,,0.04,WUHU21623XXSP,2013-10-06 10:20:00,
2013-10-06 06:25:00,64.6,62.3,29.83,SE,135,0.0,0.0,92,0.00,,,0.04,WUHU21623XXSP,2013-10-06 10:25:00,
2013-10-06 06:30:00,64.8,62.4,29.83,ESE,112,0.0,0.0,92,0.00,,,0.04,WUHU21623XXSP,2013-10-06 10:30:00,
2013-10-06 06:35:00,64.6,62.3,29.82,ESE,112,0.0,0.0,92,0.00,,,0.04,WUHU21623XXSP,2013-10-06 10:35:00,
2013-10-06 06:40:00,64.8,62.4,29.82,WSW,247,0.0,0.0,92,0.00,,,0.04,WUHU21623XXSP,2013-10-06 10:40:00,
2013-10-06 06:45:00,64.6,62.3,29.82,ESE,112,0.0,0.0,92,0.00,,,0.04,WUHU21623XXSP,2013-10-06 10:45:00,
2013-10-06 06:50:00,64.6,62.3,29.81,ESE,112,0.0,0.0,92,0.00,,,0.04,WUHU21623XXSP,2013-10-06 10:50:00,
2013-10-06 06:55:00,64.6,62.3,29.80,South,180,0.0,0.0,92,0.00,,,0.04,WUHU21623XXSP,2013-10-06 10:55:00,
2013-10-06 07:00:00,64.6,62.3,29.81,South,180,0.0,0.0,92,0.00,,,0.04,WUHU21623XXSP,2013-10-06 11:00:00,
2013-10-06 07:05:00,64.6,62.3,29.81,South,180,0.0,0.0,92,0.00,,,0.04,WUHU21623XXSP,2013-10-06 11:05:00,
2013-10-06 07:10:00,64.6,62.3,29.81,South,180,0.0,0.0,92,0.00,,,0.04,WUHU21623XXSP,2013-10-06 11:10:00,
2013-10-06 07:15:00,64.6,62.3,29.82,South,180,0.0,0.0,92,0.00,,,0.04,WUHU21623XXSP,2013-10-06 11:15:00,
2013-10-06 07:20:00,64.6,62.3,29.82,South,180,0.0,0.0,92,0.00,,,0.04,WUHU21623XXSP,2013-10-06 11:20:00,
2013-10-06 07:25:00,64.6,62.3,29.81,SE,135,0.0,0.0,92,0.00,,,0.04,WUHU21623XXSP,2013-10-06 11:25:00,
2013-10-06 07:30:00,64.6,62.3,29.81,SSE,157,0.0,0.0,92,0.00,,,0.04,WUHU21623XXSP,2013-10-06 11:30:00,
2013-10-06 07:35:00,64.6,62.3,29.80,ESE,112,0.0,0.0,92,0.00,,,0.04,WUHU21623XXSP,2013-10-06 11:35:00,
2013-10-06 07:40:00,64.6,62.3,29.80,SE,135,0.0,0.0,92,0.00,,,0.04,WUHU21623XXSP,2013-10-06 11:40:00,
2013-10-06 07:45:00,64.6,62.3,29.80,SSE,157,0.0,0.0,92,0.00,,,0.04,WUHU21623XXSP,2013-10-06 11:45:00,
2013-10-06 07:50:00,64.6,62.3,29.80,SSE,157,0.0,0.0,92,0.00,,,0.04,WUHU21623XXSP,2013-10-06 11:50:00,
2013-10-06 07:55:00,64.6,62.3,29.79,North,0,0.0,0.0,92,0.00,,,0.04,WUHU21623XXSP,2013-10-06 11:55:00,
2013-10-06 08:00:00,64.6,62.3,29.79,South,180,0.0,0.0,92,0.00,,,0.04,WUHU21623XXSP,2013-10-06 12:00:00,
2013-10-06 08:05:00,64.6,62.3,29.79,South,180,0.0,0.0,92,0.00,,,0.04,WUHU21623XXSP,2013-10-06 12:05:00,
2013-10-06 08:10:00,64.4,62.1,29.79,South,180,0.0,0.0,92,0.00,,,0.04,WUHU21623XXSP,2013-10-06 12:10:00,
2013-10-06 08:15:00,64.4,62.1,29.79,SW,225,0.0,0.0,92,0.00,,,0.04,WUHU21623XXSP,2013-10-06 12:15:00,
2013-10-06 08:20:00,64.4,62.1,29.79,SW,225,0.0,0.0,92,0.00,,,0.04,WUHU21623XXSP,2013-10-06 12:20:00,
2013-10-06 08:25:00,64.2,61.9,29.79,SSE,157,0.0,0.0,92,0.00,,,0.04,WUHU21623XXSP,2013-10-06 12:25:00,
2013-10-06 08:30:00,64.2,61.9,29.79,SSE,157,0.0,0.0,92,0.00,,,0.04,WUHU21623XXSP,2013-10-06 12:30:00,
2013-10-06 08:35:00,64.4,62.1,29.78,WSW,247,0.0,0.0,92,0.00,,,0.04,WUHU21623XXSP,2013-10-06 12:35:00,
2013-10-06 08:40:00,64.4,62.1,29.78,WSW,247,0.0,0.0,92,0.00,,,0.04,WUHU21623XXSP,2013-10-06 12:40:00,
2013-10-06 08:45:00,64.2,61.9,29.78,WSW,247,0.0,0.0,92,0.00,,,0.04,WUHU21623XXSP,2013-10-06 12:45:00,
2013-10-06 08:50:00,64.2,61.9,29.78,WSW,247,0.0,0.0,92,0.00,,,0.04,WUHU21623XXSP,2013-10-06 12:50:00,
2013-10-06 08:55:00,64.4,62.1,29.79,West,270,0.0,0.0,92,0.00,,,0.04,WUHU21623XXSP,2013-10-06 12:55:00,
2013-10-06 09:00:00,64.2,61.9,29.79,WNW,292,0.0,0.0,92,0.00,,,0.04,WUHU21623XXSP,2013-10-06 13:00:00,
2013-10-06 09:05:00,64.2,61.9,29.80,NNW,337,0.0,0.0,92,0.00,,,0.04,WUHU21623XXSP,2013-10-06 13:05:00,
2013-10-06 09:10:00,64.2,61.9,29.80,NNW,337,0.0,0.0,92,0.00,,,0.04,WUHU21623XXSP,2013-10-06 13:10:00,
2013-10-06 09:15:00,63.5,61.2,29.80,NNW,337,0.0,0.0,92,0.00,,,0.04,WUHU21623XXSP,2013-10-06 13:15:00,
2013-10-06 09:20:00,62.2,59.9,29.80,NW,315,0.0,0.0,92,0.02,,,0.06,WUHU21623XXSP,2013-10-06 13:20:00,
2013-10-06 09:25:00,61.9,59.6,29.81,NW,315,0.0,0.0,92,0.02,,,0.06,WUHU21623XXSP,2013-10-06 13:25:00,
2013-10-06 09:30:00,61.0,58.7,29.80,WNW,292,0.0,0.0,92,0.02,,,0.06,WUHU21623XXSP,2013-10-06 13:30:00,
2013-10-06 09:35:00,60.6,58.3,29.80,WNW,292,0.0,0.0,92,0.02,,,0.06,WUHU21623XXSP,2013-10-06 13:35:00,
2013-10-06 09:40:00,60.3,58.0,29.80,WNW,292,0.0,0.0,92,0.02,,,0.06,WUHU21623XXSP,2013-10-06 13:40:00,
2013-10-06 09:45:00,60.1,57.8,29.80,West,270,0.0,0.0,92,0.02,,,0.06,WUHU21623XXSP,2013-10-06 13:45:00,
2013-10-06 09:50:00,60.1,57.8,29.80,SW,225,0.0,0.0,92,0.02,,,0.06,WUHU21623XXSP,2013-10-06 13:50:00,
2013-10-06 09:55:00,59.5,57.2,29.80,SW,225,0.0,0.0,92,0.04,,,0.08,WUHU21623XXSP,2013-10-06 13:55:00,
2013-10-06 10:00:00,59.4,57.1,29.80,NW,315,0.0,0.0,92,0.04,,,0.08,WUHU21623XXSP,2013-10-06 14:00:00,
2013-10-06 10:05:00,58.8,56.5,29.81,WSW,247,0.0,0.0,92,0.04,,,0.08,WUHU21623XXSP,2013-10-06 14:05:00,
2013-10-06 10:10:00,58.8,56.5,29.81,SW,225,0.0,0.0,92,0.04,,,0.08,WUHU21623XXSP,2013-10-06 14:10:00,
2013-10-06 10:15:00,58.8,56.5,29.80,NNW,337,0.0,0.0,92,0.06,,,0.10,WUHU21623XXSP,2013-10-06 14:15:00,
2013-10-06 10:20:00,58.6,56.3,29.80,NW,315,0.0,0.0,92,0.04,,,0.10,WUHU21623XXSP,2013-10-06 14:20:00,
2013-10-06 10:25:00,58.6,56.3,29.80,WSW,247,0.0,0.0,92,0.04,,,0.10,WUHU21623XXSP,2013-10-06 14:25:00,
2013-10-06 10:30:00,58.6,56.3,29.80,West,270,0.0,0.0,92,0.04,,,0.10,WUHU21623XXSP,2013-10-06 14:30:00,
2013-10-06 10:35:00,58.3,56.0,29.80,WNW,292,0.0,0.0,92,0.04,,,0.10,WUHU21623XXSP,2013-10-06 14:35:00,
2013-10-06 10:40:00,57.9,55.6,29.80,NW,315,0.0,0.0,92,0.06,,,0.12,WUHU21623XXSP,2013-10-06 14:40:00,
2013-10-06 10:45:00,57.9,55.3,29.81,NW,315,0.0,0.0,91,0.06,,,0.12,WUHU21623XXSP,2013-10-06 14:45:00,
2013-10-06 10:50:00,57.2,54.6,29.81,NW,315,0.0,0.0,91,0.06,,,0.12,WUHU21623XXSP,2013-10-06 14:50:00,
2013-10-06 10:55:00,57.0,54.4,29.81,NNW,337,0.0,0.0,91,0.04,,,0.12,WUHU21623XXSP,2013-10-06 14:55:00,
2013-10-06 11:00:00,56.7,54.1,29.81,NW,315,0.0,0.0,91,0.04,,,0.12,WUHU21623XXSP,2013-10-06 15:00:00,
2013-10-06 11:05:00,56.1,53.5,29.81,NW,315,0.0,0.0,91,0.06,,,0.14,WUHU21623XXSP,2013-10-06 15:05:00,
2013-10-06 11:10:00,55.8,53.2,29.81,NW,315,0.0,0.0,91,0.06,,,0.14,WUHU21623XXSP,2013-10-06 15:10:00,
2013-10-06 11:15:00,55.5,52.9,29.81,NW,315,0.0,0.0,91,0.04,,,0.14,WUHU21623XXSP,2013-10-06 15:15:00,
2013-10-06 11:20:00,54.8,52.2,29.81,NW,315,0.0,0.0,91,0.04,,,0.14,WUHU21623XXSP,2013-10-06 15:20:00,
2013-10-06 11:25:00,54.5,51.9,29.81,NW,315,0.0,0.0,91,0.04,,,0.14,WUHU21623XXSP,2013-10-06 15:25:00,
2013-10-06 11:30:00,54.2,51.6,29.82,NW,315,0.0,0.0,91,0.04,,,0.14,WUHU21623XXSP,2013-10-06 15:30:00,
2013-10-06 11:35:00,53.9,51.3,29.82,NW,315,0.0,0.0,91,0.04,,,0.14,WUHU21623XXSP,2013-10-06 15:35:00,
2013-10-06 11:40:00,53.7,51.1,29.81,NW,315,0.0,0.0,91,0.02,,,0.14,WUHU21623XXSP,2013-10-06 15:40:00,
2013-10-06 11:45:00,53.4,50.8,29.80,NW,315,0.0,0.0,91,0.02,,,0.14,WUHU21623XXSP,2013-10-06 15:45:00,
2013-10-06 11:50:00,52.9,50.3,29.81,NNW,337,0.0,0.0,91,0.02,,,0.14,WUHU21623XXSP,2013-10-06 15:50:00,
2013-10-06 11:55:00,52.6,50.0,29.81,NNW,337,0.0,0.0,91,0.06,,,0.18,WUHU21623XXSP,2013-10-06 15:55:00,
2013-10-06 12:00:00,52.3,50.0,29.80,NW,315,0.0,0.0,92,0.06,,,0.18,WUHU21623XXSP,2013-10-06 16:00:00,
2013-10-06 12:05:00,52.0,49.7,29.80,NW,315,0.0,0.0,92,0.04,,,0.18,WUHU21623XXSP,2013-10-06 16:05:00,
2013-10-06 12:10:00,51.7,49.5,29.81,NW,315,0.0,0.0,92,0.04,,,0.18,WUHU21623XXSP,2013-10-06 16:10:00,
2013-10-06 12:15:00,51.5,49.2,29.81,NW,315,0.0,0.0,92,0.04,,,0.18,WUHU21623XXSP,2013-10-06 16:15:00,
2013-10-06 12:20:00,51.3,49.0,29.81,NW,315,0.0,0.0,92,0.04,,,0.18,WUHU21623XXSP,2013-10-06 16:20:00,
2013-10-06 12:25:00,51.3,49.0,29.81,North,0,0.0,0.0,92,0.04,,,0.18,WUHU21623XXSP,2013-10-06 16:25:00,
2013-10-06 13:31:00,48.4,46.2,29.79,WNW,292,0.0,0.0,92,0.00,,,0.18,WUHU21623XXSP,2013-10-06 17:31:00,
2013-10-06 13:36:00,48.4,46.1,29.79,WNW,292,0.0,0.0,92,0.00,,,0.18,WUHU21623XXSP,2013-10-06 17:36:00,
2013-10-06 13:41:00,48.3,46.0,29.79,WNW,292,0.0,0.0,92,0.00,,,0.18,WUHU21623XXSP,2013-10-06 17:41:00,
2013-10-06 13:46:00,48.3,46.0,29.78,WNW,292,0.0,0.0,92,0.00,,,0.18,WUHU21623XXSP,2013-10-06 17:46:00,
2013-10-06 13:51:00,48.2,46.0,29.78,WNW,292,0.0,0.0,92,0.00,,,0.18,WUHU21623XXSP,2013-10-06 17:51:00,
2013-10-06 13:56:00,48.0,45.7,29.79,WNW,292,0.0,0.0,92,0.00,,,0.18,WUHU21623XXSP,2013-10-06 17:56:00,
2013-10-06 14:01:00,48.0,45.7,29.77,WNW,292,0.0,0.0,92,0.00,,,0.18,WUHU21623XXSP,2013-10-06 18:01:00,
2013-10-06 14:06:00,48.0,45.8,29.77,WNW,292,0.0,0.0,92,0.00,,,0.18,WUHU21623XXSP,2013-10-06 18:06:00,
2013-10-06 14:11:00,48.0,45.8,29.76,WNW,292,0.0,0.0,92,0.00,,,0.18,WUHU21623XXSP,2013-10-06 18:11:00,
2013-10-06 14:16:00,48.1,45.8,29.77,WNW,292,0.0,0.0,92,0.00,,,0.18,WUHU21623XXSP,2013-10-06 18:16:00,
2013-10-06 14:20:00,48.1,45.8,29.77,North,0,0.0,0.0,92,0.00,,,0.18,WUHU21623XXSP,2013-10-06 18:20:00,
2013-10-06 14:21:00,48.1,45.8,29.77,WNW,292,0.0,0.0,92,0.00,,,0.18,WUHU21623XXSP,2013-10-06 18:21:00,
2013-10-06 14:26:00,48.1,45.8,29.77,North,0,0.0,0.0,92,0.00,,,0.18,WUHU21623XXSP,2013-10-06 18:26:00,
2013-10-06 14:41:00,48.4,46.1,29.77,North,0,0.0,0.0,92,0.00,,,0.18,WUHU21623XXSP,2013-10-06 18:41:00,
2013-10-06 14:46:00,48.6,46.3,29.77,West,270,0.0,0.0,92,0.19,,,0.37,WUHU21623XXSP,2013-10-06 18:46:00,
2013-10-06 14:51:00,48.9,46.6,29.77,NNW,337,0.0,0.0,92,0.19,,,0.37,WUHU21623XXSP,2013-10-06 18:51:00,
2013-10-06 14:56:00,49.4,47.2,29.76,SW,225,0.0,0.0,92,0.25,,,0.43,WUHU21623XXSP,2013-10-06 18:56:00,
2013-10-06 15:01:00,49.6,47.3,29.77,WNW,292,0.0,0.0,92,0.25,,,0.43,WUHU21623XXSP,2013-10-06 19:01:00,
2013-10-06 15:06:00,49.8,47.5,29.76,NW,315,0.0,0.0,92,0.25,,,0.43,WUHU21623XXSP,2013-10-06 19:06:00,
2013-10-06 15:11:00,49.9,47.6,29.76,WNW,292,0.0,0.0,92,0.25,,,0.43,WUHU21623XXSP,2013-10-06 19:11:00,
2013-10-06 15:16:00,50.3,48.0,29.77,SW,225,0.0,0.0,92,0.25,,,0.43,WUHU21623XXSP,2013-10-06 19:16:00,
2013-10-06 15:21:00,50.5,48.2,29.76,SW,225,0.0,0.0,92,0.25,,,0.43,WUHU21623XXSP,2013-10-06 19:21:00,
2013-10-06 15:26:00,50.7,48.4,29.76,WNW,292,0.0,0.0,92,0.25,,,0.43,WUHU21623XXSP,2013-10-06 19:26:00,
2013-10-06 15:31:00,50.7,48.4,29.76,NW,315,0.0,0.0,92,0.25,,,0.43,WUHU21623XXSP,2013-10-06 19:31:00,
2013-10-06 15:36:00,51.0,48.7,29.76,WNW,292,0.0,0.0,92,0.25,,,0.43,WUHU21623XXSP,2013-10-06 19:36:00,
2013-10-06 15:41:00,51.2,48.9,29.76,WNW,292,0.0,0.0,92,0.25,,,0.43,WUHU21623XXSP,2013-10-06 19:41:00,
2013-10-06 15:46:00,51.2,48.9,29.76,NW,315,0.0,0.0,92,0.06,,,0.43,WUHU21623XXSP,2013-10-06 19:46:00,
2013-10-06 15:51:00,51.5,49.2,29.76,NW,315,0.0,0.0,92,0.06,,,0.43,WUHU21623XXSP,2013-10-06 19:51:00,
2013-10-06 15:56:00,51.7,49.4,29.76,WSW,247,0.0,0.0,92,0.00,,,0.43,WUHU21623XXSP,2013-10-06 19:56:00,
2013-10-06 16:02:00,52.0,49.7,29.76,SSW,202,0.0,0.0,92,0.00,,,0.43,WUHU21623XXSP,2013-10-06 20:02:00,
2013-10-06 16:07:00,52.3,50.0,29.76,SW,225,0.0,0.0,92,0.00,,,0.43,WUHU21623XXSP,2013-10-06 20:07:00,
2013-10-06 16:12:00,52.8,50.5,29.76,SW,225,0.0,0.0,92,0.00,,,0.43,WUHU21623XXSP,2013-10-06 20:12:00,
2013-10-06 16:17:00,53.3,51.0,29.76,SW,225,0.0,0.0,92,0.00,,,0.43,WUHU21623XXSP,2013-10-06 20:17:00,
2013-10-06 16:22:00,53.6,51.3,29.76,SW,225,0.0,0.0,92,0.00,,,0.43,WUHU21623XXSP,2013-10-06 20:22:00,
2013-10-06 16:27:00,53.9,51.6,29.76,West,270,0.0,0.0,92,0.00,,,0.43,WUHU21623XXSP,2013-10-06 20:27:00,
2013-10-06 16:32:00,54.2,51.9,29.75,West,270,0.0,0.0,92,0.00,,,0.43,WUHU21623XXSP,2013-10-06 20:32:00,
2013-10-06 16:37:00,54.7,52.4,29.75,SW,225,0.0,0.0,92,0.00,,,0.43,WUHU21623XXSP,2013-10-06 20:37:00,
2013-10-06 16:41:00,55.0,52.7,29.75,WSW,247,0.0,0.0,92,0.00,,,0.43,WUHU21623XXSP,2013-10-06 20:41:00,
2013-10-06 16:46:00,55.3,53.0,29.75,SW,225,0.0,0.0,92,0.00,,,0.43,WUHU21623XXSP,2013-10-06 20:46:00,
2013-10-06 16:51:00,55.6,53.3,29.74,SW,225,0.0,0.0,92,0.00,,,0.43,WUHU21623XXSP,2013-10-06 20:51:00,
2013-10-06 16:56:00,55.9,53.6,29.74,SW,225,0.0,0.0,92,0.00,,,0.43,WUHU21623XXSP,2013-10-06 20:56:00,
2013-10-06 17:02:00,56.1,53.8,29.74,SW,225,0.0,0.0,92,0.00,,,0.43,WUHU21623XXSP,2013-10-06 21:02:00,
2013-10-06 17:04:00,56.1,53.8,29.74,North,0,0.0,0.0,92,0.00,,,0.43,WUHU21623XXSP,2013-10-06 21:04:00,
2013-10-06 17:07:00,56.1,53.8,29.74,North,0,0.0,0.0,92,0.00,,,0.43,WUHU21623XXSP,2013-10-06 21:07:00,
2013-10-06 17:12:00,56.1,53.8,29.74,North,0,0.0,0.0,92,0.00,,,0.43,WUHU21623XXSP,2013-10-06 21:12:00,
2013-10-06 18:16:00,56.3,53.1,29.76,North,0,0.0,0.0,89,0.00,,,0.43,WUHU21623XXSP,2013-10-06 22:16:00,
2013-10-06 18:21:00,56.3,53.1,29.75,WNW,292,0.0,0.0,89,0.00,,,0.43,WUHU21623XXSP,2013-10-06 22:21:00,
2013-10-06 18:26:00,56.1,52.9,29.76,WNW,292,0.0,0.0,89,0.00,,,0.43,WUHU21623XXSP,2013-10-06 22:26:00,
2013-10-06 18:31:00,56.1,52.9,29.75,WNW,292,0.0,0.0,89,0.00,,,0.43,WUHU21623XXSP,2013-10-06 22:31:00,
2013-10-06 18:36:00,56.1,52.9,29.75,WNW,292,0.0,0.0,89,0.00,,,0.43,WUHU21623XXSP,2013-10-06 22:36:00,
2013-10-06 18:41:00,56.1,52.9,29.76,WNW,292,0.0,0.0,89,0.00,,,0.43,WUHU21623XXSP,2013-10-06 22:41:00,
2013-10-06 18:46:00,56.1,52.6,29.76,WNW,292,0.0,0.0,88,0.00,,,0.43,WUHU21623XXSP,2013-10-06 22:46:00,
2013-10-06 18:51:00,56.1,52.6,29.76,WNW,292,0.0,0.0,88,0.00,,,0.43,WUHU21623XXSP,2013-10-06 22:51:00,
2013-10-06 18:56:00,56.1,52.6,29.76,WNW,292,0.0,0.0,88,0.00,,,0.43,WUHU21623XXSP,2013-10-06 22:56:00,
2013-10-06 19:01:00,55.9,52.4,29.77,WNW,292,0.0,0.0,88,0.00,,,0.43,WUHU21623XXSP,2013-10-06 23:01:00,
2013-10-06 19:06:00,55.9,52.4,29.76,WNW,292,0.0,0.0,88,0.00,,,0.43,WUHU21623XXSP,2013-10-06 23:06:00,
2013-10-06 19:11:00,55.9,52.4,29.76,WNW,292,0.0,0.0,88,0.00,,,0.43,WUHU21623XXSP,2013-10-06 23:11:00,
2013-10-06 19:16:00,55.9,52.7,29.77,WNW,292,0.0,0.0,89,0.00,,,0.43,WUHU21623XXSP,2013-10-06 23:16:00,
2013-10-06 19:21:00,55.9,52.7,29.76,WNW,292,0.0,0.0,89,0.00,,,0.43,WUHU21623XXSP,2013-10-06 23:21:00,
2013-10-06 19:26:00,55.9,52.7,29.76,WNW,292,0.0,0.0,89,0.00,,,0.43,WUHU21623XXSP,2013-10-06 23:26:00,
2013-10-06 19:31:00,55.9,52.7,29.76,WNW,292,0.0,0.0,89,0.00,,,0.43,WUHU21623XXSP,2013-10-06 23:31:00,
2013-10-06 19:36:00,55.9,52.7,29.77,WNW,292,0.0,0.0,89,0.00,,,0.43,WUHU21623XXSP,2013-10-06 23:36:00,
2013-10-06 19:41:00,55.9,52.7,29.77,WNW,292,0.0,0.0,89,0.00,,,0.43,WUHU21623XXSP,2013-10-06 23:41:00,
2013-10-06 19:46:00,55.9,52.7,29.77,WNW,292,0.0,0.0,89,0.00,,,0.43,WUHU21623XXSP,2013-10-06 23:46:00,
2013-10-06 19:51:00,55.9,52.7,29.77,North,0,0.0,0.0,89,0.00,,,0.43,WUHU21623XXSP,2013-10-06 23:51:00,
2013-10-06 19:56:00,55.0,51.8,29.77,WNW,292,0.0,0.0,89,0.00,,,0.43,WUHU21623XXSP,2013-10-06 23:56:00,
2013-10-06 20:01:00,55.0,51.8,29.79,NNW,337,0.0,0.0,89,0.00,,,0.43,WUHU21623XXSP,2013-10-07 00:01:00,
2013-10-06 20:06:00,55.0,51.8,29.79,NNW,337,0.0,0.0,89,0.00,,,0.43,WUHU21623XXSP,2013-10-07 00:06:00,
2013-10-06 20:11:00,54.5,51.3,29.79,WNW,292,0.0,0.0,89,0.00,,,0.43,WUHU21623XXSP,2013-10-07 00:11:00,
2013-10-06 20:13:00,54.3,50.2,29.80,WNW,292,0.0,0.0,86,0.00,,,0.43,WUHU21623XXSP,2013-10-07 00:13:00,
2013-10-06 20:15:00,54.1,50.0,29.79,West,270,0.0,0.0,86,0.00,,,0.43,WUHU21623XXSP,2013-10-07 00:15:00,
2013-10-06 20:16:00,54.1,50.0,29.79,NW,315,0.0,0.0,86,0.00,,,0.43,WUHU21623XXSP,2013-10-07 00:16:00,
2013-10-06 20:29:00,53.4,48.7,29.80,North,0,0.0,0.0,84,0.00,,,0.43,WUHU21623XXSP,2013-10-07 00:29:00,
2013-10-06 20:34:00,53.4,48.7,29.81,North,0,0.0,0.0,84,0.00,,,0.43,WUHU21623XXSP,2013-10-07 00:34:00,
2013-10-06 20:39:00,52.5,47.5,29.82,WSW,247,0.0,0.0,83,0.00,,,0.43,WUHU21623XXSP,2013-10-07 00:39:00,
2013-10-06 20:44:00,52.3,47.0,29.81,NNW,337,0.0,0.0,82,0.00,,,0.43,WUHU21623XXSP,2013-10-07 00:44:00,
2013-10-06 20:49:00,52.3,47.0,29.82,NNW,337,0.0,0.0,82,0.00,,,0.43,WUHU21623XXSP,2013-10-07 00:49:00,
2013-10-06 20:54:00,52.3,47.0,29.82,NNW,337,0.0,0.0,82,0.00,,,0.43,WUHU21623XXSP,2013-10-07 00:54:00,
2013-10-06 20:59:00,51.6,46.3,29.82,NW,315,0.0,0.0,82,0.00,,,0.43,WUHU21623XXSP,2013-10-07 00:59:00,
2013-10-06 21:04:00,51.4,46.1,29.82,NW,315,0.0,0.0,82,0.00,,,0.43,WUHU21623XXSP,2013-10-07 01:04:00,
2013-10-06 21:09:00,51.3,45.6,29.82,NNW,337,0.0,0.0,81,0.00,,,0.43,WUHU21623XXSP,2013-10-07 01:09:00,
2013-10-06 21:14:00,51.1,45.4,29.82,NNW,337,0.0,0.0,81,0.00,,,0.43,WUHU21623XXSP,2013-10-07 01:14:00,
2013-10-06 21:19:00,51.1,45.4,29.82,NW,315,0.0,0.0,81,0.00,,,0.43,WUHU21623XXSP,2013-10-07 01:19:00,
2013-10-06 21:24:00,51.1,45.4,29.82,North,0,0.0,0.0,81,0.00,,,0.43,WUHU21623XXSP,2013-10-07 01:24:00,
2013-10-06 21:29:00,50.7,44.8,29.83,North,0,0.0,0.0,80,0.00,,,0.43,WUHU21623XXSP,2013-10-07 01:29:00,
2013-10-06 21:34:00,50.7,44.8,29.83,WNW,292,0.0,0.0,80,0.00,,,0.43,WUHU21623XXSP,2013-10-07 01:34:00,
2013-10-06 21:39:00,50.5,44.6,29.83,WNW,292,0.0,0.0,80,0.00,,,0.43,WUHU21623XXSP,2013-10-07 01:39:00,
2013-10-06 21:44:00,50.5,44.6,29.83,North,0,0.0,0.0,80,0.00,,,0.43,WUHU21623XXSP,2013-10-07 01:44:00,
2013-10-06 21:49:00,50.2,43.9,29.83,West,270,0.0,0.0,79,0.00,,,0.43,WUHU21623XXSP,2013-10-07 01:49:00,
2013-10-06 21:54:00,50.2,43.6,29.84,North,0,0.0,0.0,78,0.00,,,0.43,WUHU21623XXSP,2013-10-07 01:54:00,
2013-10-06 21:59:00,49.6,43.0,29.84,NW,315,0.0,0.0,78,0.00,,,0.43,WUHU21623XXSP,2013-10-07 01:59:00,
2013-10-06 22:04:00,49.5,42.8,29.84,NW,315,0.0,0.0,78,0.00,,,0.43,WUHU21623XXSP,2013-10-07 02:04:00,
2013-10-06 22:09:00,49.3,42.7,29.84,NW,315,0.0,0.0,78,0.00,,,0.43,WUHU21623XXSP,2013-10-07 02:09:00,
2013-10-06 22:14:00,49.1,42.5,29.84,NW,315,0.0,0.0,78,0.00,,,0.43,WUHU21623XXSP,2013-10-07 02:14:00,
2013-10-06 22:19:00,48.9,42.3,29.85,NW,315,0.0,0.0,78,0.00,,,0.43,WUHU21623XXSP,2013-10-07 02:19:00,
2013-10-06 22:24:00,48.7,42.1,29.84,NW,315,0.0,0.0,78,0.00,,,0.43,WUHU21623XXSP,2013-10-07 02:24:00,
2013-10-06 22:29:00,48.7,42.1,29.84,NW,315,0.0,0.0,78,0.00,,,0.43,WUHU21623XXSP,2013-10-07 02:29:00,
2013-10-06 22:34:00,48.7,42.1,29.84,NW,315,0.0,0.0,78,0.00,,,0.43,WUHU21623XXSP,2013-10-07 02:34:00,
2013-10-06 22:39:00,48.7,42.1,29.84,NW,315,0.0,0.0,78,0.00,,,0.43,WUHU21623XXSP,2013-10-07 02:39:00,
2013-10-06 22:44:00,48.0,41.4,29.84,NW,315,0.0,0.0,78,0.00,,,0.43,WUHU21623XXSP,2013-10-07 02:44:00,
2013-10-06 22:49:00,48.0,41.4,29.84,NW,315,0.0,0.0,78,0.00,,,0.43,WUHU21623XXSP,2013-10-07 02:49:00,
2013-10-06 22:54:00,47.8,41.6,29.84,West,270,0.0,0.0,79,0.00,,,0.43,WUHU21623XXSP,2013-10-07 02:54:00,
2013-10-06 22:59:00,47.8,41.6,29.84,West,270,0.0,0.0,79,0.00,,,0.43,WUHU21623XXSP,2013-10-07 02:59:00,
2013-10-06 23:04:00,47.8,41.6,29.85,West,270,0.0,0.0,79,0.00,,,0.43,WUHU21623XXSP,2013-10-07 03:04:00,
2013-10-06 23:09:00,47.3,41.1,29.84,West,270,0.0,0.0,79,0.00,,,0.43,WUHU21623XXSP,2013-10-07 03:09:00,
2013-10-06 23:14:00,47.3,41.5,29.84,West,270,0.0,0.0,80,0.00,,,0.43,WUHU21623XXSP,2013-10-07 03:14:00,
2013-10-06 23:19:00,47.3,41.5,29.84,NW,315,0.0,0.0,80,0.00,,,0.43,WUHU21623XXSP,2013-10-07 03:19:00,
2013-10-06 23:24:00,47.3,41.5,29.84,WSW,247,0.0,0.0,80,0.00,,,0.43,WUHU21623XXSP,2013-10-07 03:24:00,
2013-10-06 23:29:00,47.3,41.5,29.84,WSW,247,0.0,0.0,80,0.00,,,0.43,WUHU21623XXSP,2013-10-07 03:29:00,
2013-10-06 23:34:00,47.3,41.5,29.84,WSW,247,0.0,0.0,80,0.00,,,0.43,WUHU21623XXSP,2013-10-07 03:34:00,
2013-10-06 23:39:00,47.3,41.5,29.84,WSW,247,0.0,0.0,80,0.00,,,0.43,WUHU21623XXSP,2013-10-07 03:39:00,
2013-10-06 23:44:00,46.8,41.0,29.83,SW,225,0.0,0.0,80,0.00,,,0.43,WUHU21623XXSP,2013-10-07 03:44:00,
2013-10-06 23:49:00,46.6,40.8,29.83,SW,225,0.0,0.0,80,0.00,,,0.43,WUHU21623XXSP,2013-10-07 03:49:00,
2013-10-06 23:54:00,46.6,40.8,29.83,SW,225,0.0,0.0,80,0.00,,,0.43,WUHU21623XXSP,2013-10-07 03:54:00,
2013-10-06 23:59:00,46.6,41.1,29.83,SW,225,0.0,0.0,81,0.00,,,0.43,WUHU21623XXSP,2013-10-07 03:59:00,